Starlink 34895

operational
NORAD ID: 65349 Int'l Des: 2025-189 Owner: SPXS Country: US Constellation: starlink
LEOCIRCULAR

About Starlink 34895

Description loading...

Live Position

Loading 3D Globe...

Upcoming Passes

Altitude History

Altitude vs Time

uPlot chart will show altitude changes over time

Two-Line Element Set

1 65349U 25189AC 26061.48493636 .00027231 00000-0 92771-3 0 9994
2 65349 53.1571 240.2100 0001693 86.8502 273.2692 15.30214926 29968
Epoch: Mar 2, 2026 • Age: 41 hours

Current Status

Altitude 478.6 km
Velocity 7.63 km/s
Sub-Earth Point -12.25°S, 163.33°E
Launch Date Aug 27, 2025
Age 0.5 years
Type internet

Technical Details

Classification Payload
Mass 575.00 kg
Dry Mass 530.00 kg
Total Mass 575.00 kg
Length 0.30 m
Diameter 4.10 m
Span 29.00 m
Shape Box + pan
Manufacturer SPXS
Bus Type Starlink V2MO
Phase Status In Orbit
Owner/State SPXS/US

Large Constellations

Loading constellations...